| time (UTC) | temp F | wind direction | speed MPH | gust MPH | rain 1hr in | rain 24hr in | rain mn in | humidity % | barometer mb |
| 20260505140341 | 73 | 178 | 5.0 | 9.0 | 0.00 | 0.00 | 0.00 | 55 | 1015.3 |
| 20260505124848 | 68 | 173 | 5.0 | 21.0 | 0.00 | 0.00 | 0.00 | 61 | 1015.4 |
| 20260505124353 | 68 | 188 | 6.0 | 14.0 | 0.00 | 0.00 | 0.00 | 63 | 1015.5 |
| 20260505123905 | 67 | 154 | 4.0 | 14.0 | 0.00 | 0.00 | 0.00 | 64 | 1015.4 |
| 20260505122836 | 65 | 236 | 3.0 | 13.0 | 0.00 | 0.00 | 0.00 | 68 | 1015.5 |
| 20260505122402 | 65 | 132 | 5.0 | 13.0 | 0.00 | 0.00 | 0.00 | 69 | 1015.4 |
| 20260505121850 | 63 | 161 | 4.0 | 14.0 | 0.00 | 0.00 | 0.00 | 71 | 1015.4 |
| 20260505121347 | 62 | 209 | 6.0 | 13.0 | 0.00 | 0.00 | 0.00 | 72 | 1015.3 |
| 20260505120853 | 62 | 180 | 5.0 | 13.0 | 0.00 | 0.00 | 0.00 | 73 | 1015.3 |
| 20260505120417 | 61 | 267 | 7.0 | 13.0 | 0.00 | 0.00 | 0.00 | 74 | 1015.2 |
| 20260505115917 | 61 | 184 | 4.0 | 13.0 | 0.00 | 0.00 | 0.00 | 75 | 1015.2 |
| 20260505115327 | 60 | 193 | 5.0 | 11.0 | 0.00 | 0.00 | 0.00 | 76 | 1015.3 |
| 20260505114824 | 60 | 209 | 6.0 | 11.0 | 0.00 | 0.00 | 0.00 | 77 | 1015.3 |
| 20260505114344 | 59 | 203 | 2.0 | 8.0 | 0.00 | 0.00 | 0.00 | 78 | 1015.3 |
| 20260505113850 | 59 | 198 | 3.0 | 8.0 | 0.00 | 0.00 | 0.00 | 79 | 1015.2 |
| 20260505113409 | 59 | 192 | 2.0 | 10.0 | 0.00 | 0.00 | 0.00 | 79 | 1015.2 |
| 20260505112913 | 58 | 167 | 3.0 | 10.0 | 0.00 | 0.00 | 0.00 | 79 | 1015.2 |
| 20260505112345 | 58 | 171 | 3.0 | 7.0 | 0.00 | 0.00 | 0.00 | 79 | 1015.1 |
| 20260505111913 | 58 | 205 | 3.0 | 10.0 | 0.00 | 0.00 | 0.00 | 79 | 1015.1 |
| 20260505111409 | 58 | 188 | 3.0 | 10.0 | 0.00 | 0.00 | 0.00 | 79 | 1015.1 |
| 20260505110931 | 58 | 192 | 3.0 | 8.0 | 0.00 | 0.00 | 0.00 | 79 | 1015.1 |
| 20260505110359 | 58 | 195 | 3.0 | 7.0 | 0.00 | 0.00 | 0.00 | 79 | 1015.0 |
| 20260505101845 | 58 | 196 | 3.0 | 8.0 | 0.00 | 0.00 | 0.00 | 78 | 1014.6 |
| 20260505101340 | 58 | 242 | 3.0 | 8.0 | 0.00 | 0.00 | 0.00 | 78 | 1014.5 |
| 20260505100833 | 58 | 248 | 2.0 | 8.0 | 0.00 | 0.00 | 0.00 | 78 | 1014.5 |
| 20260505100403 | 58 | 232 | 3.0 | 7.0 | 0.00 | 0.00 | 0.00 | 78 | 1014.4 |
| 20260505095838 | 58 | 189 | 4.0 | 8.0 | 0.00 | 0.00 | 0.00 | 77 | 1014.3 |
| 20260505095406 | 58 | 187 | 3.0 | 8.0 | 0.00 | 0.00 | 0.00 | 77 | 1014.3 |
| 20260505094911 | 58 | 176 | 4.0 | 7.0 | 0.00 | 0.00 | 0.00 | 77 | 1014.3 |
| 20260505094414 | 58 | 233 | 3.0 | 9.0 | 0.00 | 0.00 | 0.00 | 76 | 1014.2 |
| 20260505093908 | 59 | 217 | 3.0 | 9.0 | 0.00 | 0.00 | 0.00 | 76 | 1014.0 |
| 20260505092824 | 59 | 181 | 3.0 | 9.0 | 0.00 | 0.00 | 0.00 | 76 | 1013.9 |
| 20260505092325 | 59 | 171 | 4.0 | 9.0 | 0.00 | 0.00 | 0.00 | 75 | 1013.9 |
| 20260505091840 | 59 | 184 | 3.0 | 8.0 | 0.00 | 0.00 | 0.00 | 75 | 1013.9 |
| 20260505091331 | 59 | 184 | 4.0 | 8.0 | 0.00 | 0.00 | 0.00 | 75 | 1013.9 |
| 20260505090833 | 59 | 199 | 3.0 | 8.0 | 0.00 | 0.00 | 0.00 | 74 | 1013.9 |
| 20260505090340 | 59 | 183 | 2.0 | 9.0 | 0.00 | 0.00 | 0.00 | 74 | 1013.9 |
| 20260505085826 | 60 | 193 | 3.0 | 9.0 | 0.00 | 0.00 | 0.00 | 74 | 1013.8 |
| 20260505085356 | 60 | 214 | 4.0 | 8.0 | 0.00 | 0.00 | 0.00 | 73 | 1013.8 |
| 20260505084923 | 60 | 196 | 3.0 | 8.0 | 0.00 | 0.00 | 0.00 | 73 | 1013.7 |
| 20260505084400 | 60 | 180 | 3.0 | 8.0 | 0.00 | 0.00 | 0.00 | 73 | 1013.8 |
| 20260505083856 | 60 | 184 | 4.0 | 9.0 | 0.00 | 0.00 | 0.00 | 73 | 1013.8 |
| 20260505083355 | 60 | 232 | 3.0 | 9.0 | 0.00 | 0.00 | 0.00 | 73 | 1013.9 |
| 20260505082911 | 60 | 188 | 3.0 | 12.0 | 0.00 | 0.00 | 0.00 | 72 | 1013.8 |
| 20260505081921 | 60 | 183 | 2.0 | 12.0 | 0.00 | 0.00 | 0.00 | 72 | 1013.7 |
| 20260505081418 | 60 | 207 | 3.0 | 10.0 | 0.00 | 0.00 | 0.00 | 72 | 1013.7 |
| 20260505080422 | 61 | 182 | 3.0 | 11.0 | 0.00 | 0.00 | 0.00 | 72 | 1013.6 |
| 20260505075903 | 61 | 232 | 4.0 | 11.0 | 0.00 | 0.00 | 0.00 | 71 | 1013.7 |
| 20260505074836 | 61 | 241 | 4.0 | 8.0 | 0.00 | 0.00 | 0.00 | 71 | 1013.7 |
| 20260505074341 | 61 | 193 | 5.0 | 11.0 | 0.00 | 0.00 | 0.00 | 71 | 1013.7 |
| 20260505073901 | 61 | 207 | 3.0 | 11.0 | 0.00 | 0.00 | 0.00 | 70 | 1013.7 |
| 20260505073419 | 61 | 178 | 2.0 | 9.0 | 0.00 | 0.00 | 0.00 | 70 | 1013.5 |
| 20260505072824 | 61 | 169 | 3.0 | 9.0 | 0.00 | 0.00 | 0.00 | 70 | 1013.4 |
| 20260505072344 | 61 | 261 | 3.0 | 9.0 | 0.00 | 0.00 | 0.00 | 69 | 1013.4 |
| 20260505071833 | 61 | 117 | 2.0 | 10.0 | 0.00 | 0.00 | 0.00 | 69 | 1013.4 |
| 20260505071326 | 61 | 223 | 4.0 | 10.0 | 0.00 | 0.00 | 0.00 | 69 | 1013.4 |
| 20260505070840 | 62 | 259 | 4.0 | 9.0 | 0.00 | 0.00 | 0.00 | 69 | 1013.3 |
| 20260505070400 | 62 | 169 | 4.0 | 9.0 | 0.00 | 0.00 | 0.00 | 69 | 1013.2 |
| 20260505065906 | 62 | 284 | 3.0 | 10.0 | 0.00 | 0.00 | 0.00 | 68 | 1013.2 |
| 20260505064834 | 62 | 245 | 4.0 | 12.0 | 0.00 | 0.00 | 0.00 | 67 | 1013.2 |
| 20260505064357 | 62 | 171 | 3.0 | 10.0 | 0.00 | 0.00 | 0.00 | 67 | 1013.3 |
| 20260505063906 | 62 | 178 | 4.0 | 9.0 | 0.00 | 0.00 | 0.00 | 67 | 1013.4 |
| 20260505063356 | 62 | 196 | 3.0 | 11.0 | 0.00 | 0.00 | 0.00 | 66 | 1013.4 |
| 20260505062902 | 63 | 208 | 4.0 | 12.0 | 0.00 | 0.00 | 0.00 | 66 | 1013.4 |
| 20260505062407 | 63 | 181 | 5.0 | 12.0 | 0.00 | 0.00 | 0.00 | 66 | 1013.4 |
| 20260505061912 | 63 | 226 | 5.0 | 12.0 | 0.00 | 0.00 | 0.00 | 66 | 1013.4 |
| 20260505061423 | 63 | 177 | 5.0 | 12.0 | 0.00 | 0.00 | 0.00 | 66 | 1013.4 |
| 20260505060326 | 63 | 199 | 6.0 | 13.0 | 0.00 | 0.00 | 0.00 | 65 | 1013.5 |
| 20260505060103 | 62 | 175 | 2.0 | 10.0 | 0.00 | 0.00 | 0.00 | 65 | 1013.4 |
| 20260505055825 | 63 | 165 | 5.0 | 10.0 | 0.00 | 0.00 | 0.00 | 65 | 1013.5 |
| 20260505055341 | 63 | 219 | 3.0 | 13.0 | 0.00 | 0.00 | 0.00 | 65 | 1013.6 |
| 20260505054838 | 63 | 186 | 5.0 | 13.0 | 0.00 | 0.00 | 0.00 | 65 | 1013.8 |
| 20260505054512 | 63 | 252 | 2.0 | 10.0 | 0.00 | 0.00 | 0.00 | 65 | 1013.8 |
| 20260505054332 | 63 | 203 | 6.0 | 11.0 | 0.00 | 0.00 | 0.00 | 65 | 1013.7 |
| 20260505053821 | 63 | 183 | 4.0 | 12.0 | 0.00 | 0.00 | 0.00 | 65 | 1013.6 |
| 20260505053339 | 63 | 213 | 5.0 | 13.0 | 0.00 | 0.00 | 0.00 | 65 | 1013.6 |
| 20260505053024 | 63 | 179 | 4.0 | 13.0 | 0.00 | 0.00 | 0.00 | 65 | 1013.6 |
| 20260505052857 | 64 | 201 | 8.0 | 13.0 | 0.00 | 0.00 | 0.00 | 64 | 1013.6 |
| 20260505052329 | 64 | 238 | 3.0 | 13.0 | 0.00 | 0.00 | 0.00 | 65 | 1013.6 |
| 20260505051822 | 64 | 249 | 6.0 | 13.0 | 0.00 | 0.00 | 0.00 | 64 | 1013.7 |
| 20260505051533 | 63 | 173 | 3.0 | 15.0 | 0.00 | 0.00 | 0.00 | 64 | 1013.7 |
| 20260505051342 | 64 | 223 | 4.0 | 15.0 | 0.00 | 0.00 | 0.00 | 64 | 1013.7 |
| 20260505050839 | 64 | 176 | 6.0 | 15.0 | 0.00 | 0.00 | 0.00 | 65 | 1013.7 |
| 20260505041407 | 64 | 228 | 5.0 | 12.0 | 0.00 | 0.00 | 0.00 | 64 | 1013.7 |
| 20260505040856 | 65 | 215 | 5.0 | 14.0 | 0.00 | 0.00 | 0.00 | 64 | 1013.7 |
| 20260505040329 | 65 | 239 | 8.0 | 14.0 | 0.00 | 0.00 | 0.00 | 64 | 1013.6 |
| 20260505035850 | 65 | 349 | 6.0 | 20.0 | 0.00 | 0.00 | 0.00 | 63 | 1013.6 |
| 20260505035324 | 65 | 227 | 8.0 | 20.0 | 0.00 | 0.00 | 0.00 | 63 | 1013.6 |
| 20260505034840 | 65 | 211 | 5.0 | 12.0 | 0.00 | 0.00 | 0.00 | 63 | 1013.5 |
| 20260505034343 | 65 | 234 | 5.0 | 13.0 | 0.00 | 0.00 | 0.00 | 63 | 1013.5 |
| 20260505033837 | 65 | 199 | 6.0 | 13.0 | 0.00 | 0.00 | 0.00 | 63 | 1013.5 |
| 20260505033331 | 65 | 245 | 4.0 | 18.0 | 0.00 | 0.00 | 0.00 | 63 | 1013.5 |
| 20260505032828 | 65 | 227 | 6.0 | 18.0 | 0.00 | 0.00 | 0.00 | 63 | 1013.5 |
| 20260505031853 | 65 | 194 | 6.0 | 15.0 | 0.00 | 0.00 | 0.00 | 63 | 1013.6 |
| 20260505031410 | 65 | 252 | 6.0 | 15.0 | 0.00 | 0.00 | 0.00 | 63 | 1013.4 |
| 20260505030421 | 65 | 203 | 6.0 | 16.0 | 0.00 | 0.00 | 0.00 | 64 | 1013.5 |
| 20260505025856 | 65 | 218 | 6.0 | 22.0 | 0.00 | 0.00 | 0.00 | 64 | 1013.5 |
| 20260505025357 | 65 | 246 | 7.0 | 22.0 | 0.00 | 0.00 | 0.00 | 64 | 1013.7 |
| 20260505024340 | 66 | 187 | 5.0 | 14.0 | 0.00 | 0.00 | 0.00 | 64 | 1013.4 |
| 20260505023836 | 66 | 187 | 5.0 | 14.0 | 0.00 | 0.00 | 0.00 | 64 | 1013.4 |
| 20260505022854 | 66 | 222 | 5.0 | 23.0 | 0.00 | 0.00 | 0.00 | 64 | 1013.3 |
| 20260505022417 | 66 | 227 | 7.0 | 23.0 | 0.00 | 0.00 | 0.00 | 64 | 1013.3 |
| 20260505021928 | 66 | 234 | 7.0 | 18.0 | 0.00 | 0.00 | 0.00 | 64 | 1013.2 |
| 20260505020830 | 66 | 197 | 7.0 | 15.0 | 0.00 | 0.00 | 0.00 | 64 | 1013.4 |
| 20260505020335 | 66 | 217 | 6.0 | 18.0 | 0.00 | 0.00 | 0.00 | 65 | 1013.6 |
| 20260505015847 | 66 | 193 | 6.0 | 18.0 | 0.00 | 0.00 | 0.00 | 65 | 1013.4 |
| 20260505015414 | 66 | 221 | 6.0 | 12.0 | 0.00 | 0.00 | 0.00 | 65 | 1013.3 |
| 20260505014911 | 66 | 179 | 327.0 | 327.0 | 0.00 | 0.00 | 0.00 | 64 | 1013.3 |
| 20260505014356 | 66 | 217 | 4.0 | 14.0 | 0.00 | 0.00 | 0.00 | 64 | 1013.2 |
| 20260505013902 | 66 | 195 | 3.0 | 14.0 | 0.00 | 0.00 | 0.00 | 64 | 1013.2 |
| 20260505013351 | 67 | 199 | 6.0 | 12.0 | 0.00 | 0.00 | 0.00 | 64 | 1013.2 |
| 20260505012855 | 67 | 191 | 5.0 | 12.0 | 0.00 | 0.00 | 0.00 | 64 | 1013.1 |
| 20260505012347 | 67 | 185 | 6.0 | 12.0 | 0.00 | 0.00 | 0.00 | 64 | 1013.2 |
| 20260505011911 | 67 | 217 | 5.0 | 12.0 | 0.00 | 0.00 | 0.00 | 64 | 1013.1 |
| 20260505011332 | 67 | 223 | 5.0 | 10.0 | 0.00 | 0.00 | 0.00 | 64 | 1013.0 |
| 20260505010849 | 67 | 273 | 5.0 | 11.0 | 0.00 | 0.00 | 0.00 | 63 | 1012.9 |
| 20260505010345 | 67 | 198 | 5.0 | 14.0 | 0.00 | 0.00 | 0.00 | 63 | 1012.8 |
| 20260505005850 | 67 | 209 | 3.0 | 14.0 | 0.00 | 0.00 | 0.00 | 63 | 1012.7 |
| 20260505005336 | 67 | 190 | 2.0 | 9.0 | 0.00 | 0.00 | 0.00 | 63 | 1012.6 |
| 20260505004839 | 67 | 207 | 4.0 | 9.0 | 0.00 | 0.00 | 0.00 | 63 | 1012.7 |
| 20260505004333 | 67 | 207 | 4.0 | 12.0 | 0.00 | 0.00 | 0.00 | 62 | 1012.6 |
| 20260505003847 | 68 | 237 | 3.0 | 12.0 | 0.00 | 0.00 | 0.00 | 62 | 1012.6 |
| 20260505003347 | 68 | 205 | 2.0 | 9.0 | 0.00 | 0.00 | 0.00 | 62 | 1012.4 |
| 20260505002850 | 68 | 229 | 2.0 | 13.0 | 0.00 | 0.00 | 0.00 | 61 | 1012.5 |
| 20260505002406 | 68 | 188 | 6.0 | 14.0 | 0.00 | 0.00 | 0.00 | 61 | 1012.4 |
| 20260505001913 | 69 | 175 | 327.0 | 327.0 | 0.00 | 0.00 | 0.00 | 60 | 1012.3 |
| 20260505001413 | 69 | 164 | 4.0 | 10.0 | 0.00 | 0.00 | 0.00 | 60 | 1012.2 |
| 20260505000917 | 69 | 199 | 4.0 | 11.0 | 0.00 | 0.00 | 0.00 | 59 | 1012.3 |
| 20260504235826 | 69 | 221 | 4.0 | 13.0 | 0.00 | 0.00 | 0.00 | 59 | 1012.0 |
| 20260504235346 | 70 | 223 | 4.0 | 12.0 | 0.00 | 0.00 | 0.00 | 58 | 1011.9 |
| 20260504234913 | 70 | 201 | 3.0 | 13.0 | 0.00 | 0.00 | 0.00 | 58 | 1011.9 |
| 20260504233914 | 70 | 198 | 3.0 | 12.0 | 0.00 | 0.00 | 0.00 | 58 | 1011.9 |
| 20260504233331 | 71 | 114 | 7.0 | 13.0 | 0.00 | 0.00 | 0.00 | 57 | 1011.7 |
| 20260504232857 | 71 | 208 | 5.0 | 12.0 | 0.00 | 0.00 | 0.00 | 56 | 1011.8 |
| 20260504232411 | 71 | 167 | 6.0 | 18.0 | 0.00 | 0.00 | 0.00 | 56 | 1011.6 |
| 20260504231914 | 71 | 229 | 7.0 | 18.0 | 0.00 | 0.00 | 0.00 | 55 | 1011.6 |
| 20260504231428 | 72 | 223 | 7.0 | 12.0 | 0.00 | 0.00 | 0.00 | 55 | 1011.5 |
| 20260504230913 | 72 | 160 | 6.0 | 18.0 | 0.00 | 0.00 | 0.00 | 54 | 1011.4 |
| 20260504230418 | 73 | 241 | 7.0 | 18.0 | 0.00 | 0.00 | 0.00 | 53 | 1011.5 |
| 20260504225856 | 73 | 190 | 9.0 | 18.0 | 0.00 | 0.00 | 0.00 | 52 | 1011.5 |
| 20260504225350 | 74 | 119 | 5.0 | 15.0 | 0.00 | 0.00 | 0.00 | 50 | 1011.4 |
| 20260504223822 | 76 | 180 | 4.0 | 12.0 | 0.00 | 0.00 | 0.00 | 38 | 1011.2 |
| 20260504223345 | 76 | 182 | 6.0 | 13.0 | 0.00 | 0.00 | 0.00 | 37 | 1011.2 |
| 20260504222901 | 76 | 205 | 7.0 | 13.0 | 0.00 | 0.00 | 0.00 | 37 | 1011.2 |
| 20260504222421 | 76 | 225 | 4.0 | 22.0 | 0.00 | 0.00 | 0.00 | 37 | 1011.1 |
| 20260504221828 | 76 | 180 | 10.0 | 22.0 | 0.00 | 0.00 | 0.00 | 36 | 1011.1 |
| 20260504221323 | 77 | 238 | 7.0 | 16.0 | 0.00 | 0.00 | 0.00 | 37 | 1011.2 |
| 20260504220846 | 77 | 198 | 6.0 | 15.0 | 0.00 | 0.00 | 0.00 | 36 | 1011.1 |
| 20260504220410 | 77 | 242 | 6.0 | 15.0 | 0.00 | 0.00 | 0.00 | 36 | 1011.1 |
| 20260504215923 | 77 | 165 | 4.0 | 13.0 | 0.00 | 0.00 | 0.00 | 36 | 1011.1 |
| 20260504215408 | 78 | 173 | 4.0 | 12.0 | 0.00 | 0.00 | 0.00 | 36 | 1011.1 |
| 20260504214916 | 78 | 203 | 3.0 | 15.0 | 0.00 | 0.00 | 0.00 | 36 | 1011.2 |
| 20260504214330 | 79 | 164 | 5.0 | 18.0 | 0.00 | 0.00 | 0.00 | 34 | 1011.2 |
| 20260504212916 | 80 | 227 | 8.0 | 20.0 | 0.00 | 0.00 | 0.00 | 33 | 1011.3 |
| 20260504212407 | 80 | 186 | 7.0 | 15.0 | 0.00 | 0.00 | 0.00 | 33 | 1011.4 |
| 20260504211903 | 80 | 260 | 6.0 | 15.0 | 0.00 | 0.00 | 0.00 | 34 | 1011.4 |
| 20260504211342 | 80 | 193 | 6.0 | 14.0 | 0.00 | 0.00 | 0.00 | 33 | 1011.3 |
| 20260504210845 | 80 | 169 | 8.0 | 15.0 | 0.00 | 0.00 | 0.00 | 33 | 1011.4 |
| 20260504205847 | 80 | 163 | 3.0 | 16.0 | 0.00 | 0.00 | 0.00 | 34 | 1011.4 |
| 20260504205351 | 80 | 169 | 4.0 | 19.0 | 0.00 | 0.00 | 0.00 | 34 | 1011.5 |
| 20260504204910 | 80 | 176 | 9.0 | 19.0 | 0.00 | 0.00 | 0.00 | 33 | 1011.6 |
| 20260504203912 | 81 | 175 | 6.0 | 13.0 | 0.00 | 0.00 | 0.00 | 33 | 1011.4 |
| 20260504203406 | 81 | 202 | 6.0 | 14.0 | 0.00 | 0.00 | 0.00 | 33 | 1011.5 |
| 20260504202909 | 81 | 161 | 6.0 | 16.0 | 0.00 | 0.00 | 0.00 | 33 | 1011.5 |
| 20260504202328 | 81 | 217 | 4.0 | 16.0 | 0.00 | 0.00 | 0.00 | 34 | 1011.6 |
| 20260504201941 | 81 | 209 | 4.0 | 12.0 | 0.00 | 0.00 | 0.00 | 34 | 1011.5 |
| 20260504201325 | 80 | 245 | 3.0 | 21.0 | 0.00 | 0.00 | 0.00 | 34 | 1011.6 |
| 20260504200845 | 80 | 223 | 4.0 | 12.0 | 0.00 | 0.00 | 0.00 | 34 | 1011.5 |
| 20260504200347 | 80 | 165 | 5.0 | 23.0 | 0.00 | 0.00 | 0.00 | 32 | 1011.7 |
| 20260504195839 | 80 | 268 | 5.0 | 23.0 | 0.00 | 0.00 | 0.00 | 33 | 1011.7 |
| 20260504195342 | 79 | 165 | 6.0 | 18.0 | 0.00 | 0.00 | 0.00 | 34 | 1011.7 |
| 20260504194845 | 80 | 235 | 8.0 | 18.0 | 0.00 | 0.00 | 0.00 | 33 | 1012.0 |
| 20260504194356 | 80 | 198 | 4.0 | 15.0 | 0.00 | 0.00 | 0.00 | 34 | 1011.9 |
| 20260504193908 | 80 | 207 | 7.0 | 15.0 | 0.00 | 0.00 | 0.00 | 34 | 1012.1 |
| 20260504193410 | 81 | 168 | 6.0 | 14.0 | 0.00 | 0.00 | 0.00 | 33 | 1012.1 |
| 20260504192909 | 81 | 252 | 4.0 | 10.0 | 0.00 | 0.00 | 0.00 | 35 | 1012.3 |
| 20260504192415 | 80 | 222 | 2.0 | 7.0 | 0.00 | 0.00 | 0.00 | 37 | 1012.1 |
| 20260504191909 | 80 | 136 | 2.0 | 16.0 | 0.00 | 0.00 | 0.00 | 37 | 1012.3 |
| 20260504191401 | 80 | 253 | 9.0 | 16.0 | 0.00 | 0.00 | 0.00 | 35 | 1012.3 |
| 20260504190346 | 80 | 171 | 3.0 | 16.0 | 0.00 | 0.00 | 0.00 | 36 | 1012.3 |
| 20260504185854 | 79 | 238 | 4.0 | 16.0 | 0.00 | 0.00 | 0.00 | 35 | 1012.5 |
| 20260504185411 | 80 | 244 | 7.0 | 21.0 | 0.00 | 0.00 | 0.00 | 35 | 1012.6 |
| 20260504184909 | 79 | 234 | 6.0 | 21.0 | 0.00 | 0.00 | 0.00 | 36 | 1012.7 |
| 20260504183845 | 79 | 186 | 5.0 | 13.0 | 0.00 | 0.00 | 0.00 | 37 | 1012.9 |
| 20260504183348 | 79 | 230 | 3.0 | 10.0 | 0.00 | 0.00 | 0.00 | 38 | 1012.9 |
| 20260504182850 | 79 | 315 | 3.0 | 16.0 | 0.00 | 0.00 | 0.00 | 41 | 1013.0 |
| 20260504181824 | 79 | 208 | 5.0 | 21.0 | 0.00 | 0.00 | 0.00 | 36 | 1013.2 |
| 20260504181323 | 78 | 310 | 3.0 | 12.0 | 0.00 | 0.00 | 0.00 | 39 | 1013.2 |
| 20260504180843 | 78 | 210 | 3.0 | 19.0 | 0.00 | 0.00 | 0.00 | 38 | 1013.2 |
| 20260504180342 | 77 | 241 | 6.0 | 19.0 | 0.00 | 0.00 | 0.00 | 38 | 1013.3 |
| 20260504175832 | 77 | 184 | 5.0 | 13.0 | 0.00 | 0.00 | 0.00 | 38 | 1013.5 |
| 20260504174917 | 78 | 186 | 5.0 | 23.0 | 0.00 | 0.00 | 0.00 | 37 | 1013.4 |
| 20260504174417 | 78 | 213 | 4.0 | 23.0 | 0.00 | 0.00 | 0.00 | 37 | 1013.4 |
| 20260504173832 | 78 | 190 | 5.0 | 10.0 | 0.00 | 0.00 | 0.00 | 38 | 1013.4 |
| 20260504173343 | 78 | 121 | 3.0 | 13.0 | 0.00 | 0.00 | 0.00 | 42 | 1013.4 |
| 20260504172834 | 78 | 201 | 5.0 | 13.0 | 0.00 | 0.00 | 0.00 | 40 | 1013.5 |
| 20260504172329 | 78 | 360 | 6.0 | 11.0 | 0.00 | 0.00 | 0.00 | 38 | 1013.6 |
| 20260504171853 | 78 | 227 | 4.0 | 18.0 | 0.00 | 0.00 | 0.00 | 38 | 1013.6 |
| 20260504171352 | 78 | 217 | 5.0 | 18.0 | 0.00 | 0.00 | 0.00 | 37 | 1013.7 |
| 20260504170855 | 77 | 180 | 4.0 | 13.0 | 0.00 | 0.00 | 0.00 | 39 | 1013.6 |
| 20260504170350 | 77 | 184 | 4.0 | 11.0 | 0.00 | 0.00 | 0.00 | 38 | 1013.7 |
| 20260504160423 | 75 | 168 | 5.0 | 14.0 | 0.00 | 0.00 | 0.00 | 43 | 1014.3 |
| 20260504150853 | 72 | 252 | 3.0 | 12.0 | 0.00 | 0.00 | 0.00 | 47 | 1014.8 |
| 20260504150359 | 72 | 181 | 3.0 | 12.0 | 0.00 | 0.00 | 0.00 | 45 | 1014.9 |